Bluffton, MN

11:14 PM CST on February 24, 2017 (GMT -0600)
Wadena Municipal

Weather History for KADC - February, 2014

Change the Weather History Date:

Tuesday, February 4, 2014

  Actual Average Record
Temperature  
Mean Temperature -6 °F -  
Max Temperature 1 °F 18 °F 44 °F (1991)
Min Temperature -14 °F -3 °F -35 °F (1989)
Degree Days  
Heating Degree Days 72    
Moisture  
Dew Point -14 °F    
Average Humidity 70    
Maximum Humidity 85    
Minimum Humidity 51    
Precipitation  
Precipitation 0.00 in - - ()
Sea Level Pressure  
Sea Level Pressure 30.44 in    
Wind  
Wind Speed 8 mph (NW)    
Max Wind Speed 16 mph    
Max Gust Speed 22 mph    
Visibility 10 miles    
Events      
Averages and records for this station are not official NWS values.
T = Trace of Precipitation, MM = Missing Value Source: NWS Daily Summary

Daily Weather History Graph

Daily Weather History Graph

Search for Another Location

Airport or City:

Trip Planner

Search our weather history database for the weather conditions in past years. The results will help you decide how hot, cold, wet, or windy it might be!

Date:

Astronomy

Feb. 04, 2014 Rise Set
Actual Time 7:40 AM CST 5:29 PM CST
Civil Twilight 7:08 AM CST 6:01 PM CST
Nautical Twilight 6:32 AM CST 6:37 PM CST
Astronomical Twilight 5:57 AM CST 7:12 PM CST
Moon 9:57 AM CST (2/4) 11:48 PM CST (2/4)
Length of Visible Light 10h 53m
Length of Day
9h 49m
Waxing Crescent, 29% of the Moon is Illuminated
Feb 4
Waxing Crescent
Feb 6
First Quarter
Feb 14
Full
Feb 22
Last Quarter
Mar 1
New

Hourly Weather History & Observations

Time (CST) Temp. Windchill Dew Point Humidity Pressure Visibility Wind Dir Wind Speed Gust Speed Precip Events Conditions
12:15 AM -0.4 °F -13.4 °F -4.0 °F 85% 30.32 in 10.0 mi WNW 6.9 mph - N/A   Overcast
12:35 AM -0.4 °F -15.7 °F -5.8 °F 78% 30.33 in 10.0 mi WNW 9.2 mph - N/A   Mostly Cloudy
12:53 AM -2.2 °F -16.8 °F -7.6 °F 78% 30.34 in 10.0 mi WNW 8.1 mph - N/A   Mostly Cloudy
1:14 AM -2.2 °F -14.2 °F -7.6 °F 78% 30.35 in 10.0 mi WNW 5.8 mph - N/A   Overcast
1:34 AM -2.2 °F -16.8 °F -7.6 °F 78% 30.35 in 10.0 mi NW 8.1 mph - N/A   Overcast
1:53 AM -2.2 °F -18.0 °F -7.6 °F 78% 30.36 in 10.0 mi NW 9.2 mph - N/A   Scattered Clouds
2:15 AM -4.0 °F -22.1 °F -9.4 °F 78% 30.36 in 10.0 mi NW 11.5 mph - N/A   Clear
2:35 AM -5.8 °F -22.4 °F -9.4 °F 84% 30.38 in 10.0 mi WNW 9.2 mph - N/A   Scattered Clouds
2:52 AM -5.8 °F -23.4 °F -11.2 °F 77% 30.38 in 10.0 mi NW 10.4 mph - N/A   Clear
3:14 AM -5.8 °F -19.9 °F -11.2 °F 77% 30.39 in 10.0 mi WNW 6.9 mph - N/A   Clear
3:34 AM -7.6 °F -23.4 °F -11.2 °F 84% 30.40 in 10.0 mi NW 8.1 mph - N/A   Clear
3:52 AM -7.6 °F -23.4 °F -13.0 °F 77% 30.40 in 10.0 mi NW 8.1 mph - N/A   Clear
4:14 AM -9.4 °F -24.3 °F -14.8 °F 77% 30.40 in 10.0 mi NW 6.9 mph - N/A   Clear
4:35 AM -9.4 °F -24.3 °F -14.8 °F 77% 30.40 in 10.0 mi NW 6.9 mph - N/A   Clear
4:53 AM -9.4 °F -22.7 °F -13.0 °F 84% 30.40 in 10.0 mi NW 5.8 mph - N/A   Clear
5:14 AM -9.4 °F -20.9 °F -13.0 °F 84% 30.41 in 10.0 mi WNW 4.6 mph - N/A   Clear
5:35 AM -9.4 °F -22.7 °F -14.8 °F 77% 30.41 in 10.0 mi WNW 5.8 mph - N/A   Clear
5:53 AM -11.2 °F -27.8 °F -14.8 °F 84% 30.41 in 10.0 mi NW 8.1 mph - N/A   Clear
6:14 AM -11.2 °F -27.8 °F -14.8 °F 84% 30.42 in 10.0 mi NW 8.1 mph - N/A   Clear
6:34 AM -11.2 °F -23.0 °F -16.6 °F 77% 30.42 in 10.0 mi WNW 4.6 mph - N/A   Clear
6:53 AM -9.4 °F -18.6 °F -14.8 °F 77% 30.43 in 10.0 mi West 3.5 mph - N/A   Clear
7:14 AM -11.2 °F -20.6 °F -16.6 °F 77% 30.44 in 10.0 mi West 3.5 mph - N/A   Clear
7:35 AM -11.2 °F - -16.6 °F 77% 30.44 in 10.0 mi Calm Calm - N/A   Clear
7:53 AM -14.8 °F -24.8 °F -18.4 °F 84% 30.45 in 10.0 mi WSW 3.5 mph - N/A   Clear
8:14 AM -13.0 °F -25.1 °F -16.6 °F 84% 30.46 in 10.0 mi West 4.6 mph - N/A   Clear
8:35 AM -11.2 °F -23.0 °F -16.6 °F 77% 30.46 in 10.0 mi West 4.6 mph - N/A   Clear
8:53 AM -11.2 °F -24.8 °F -16.6 °F 77% 30.46 in 10.0 mi WNW 5.8 mph - N/A   Clear
9:14 AM -11.2 °F -24.8 °F -16.6 °F 77% 30.46 in 10.0 mi WNW 5.8 mph - N/A   Clear
9:35 AM -9.4 °F -24.3 °F -16.6 °F 71% 30.46 in 10.0 mi NW 6.9 mph - N/A   Clear
9:52 AM -9.4 °F -25.6 °F -14.8 °F 77% 30.46 in 10.0 mi WNW 8.1 mph - N/A   Clear
10:14 AM -7.6 °F -22.1 °F -14.8 °F 71% 30.47 in 10.0 mi WNW 6.9 mph - N/A   Clear
10:35 AM -5.8 °F -23.4 °F -14.8 °F 65% 30.47 in 10.0 mi NNW 10.4 mph - N/A   Clear
10:53 AM -5.8 °F -24.4 °F -14.8 °F 65% 30.47 in 10.0 mi NNW 11.5 mph - N/A   Clear
11:15 AM -4.0 °F -21.2 °F -13.0 °F 65% 30.46 in 10.0 mi NW 10.4 mph - N/A   Clear
11:35 AM -2.2 °F -19.9 °F -11.2 °F 66% 30.47 in 10.0 mi NNW 11.5 mph - N/A   Clear
11:53 AM -0.4 °F -18.4 °F -11.2 °F 60% 30.46 in 10.0 mi North 12.7 mph 21.9 mph N/A   Clear
12:15 PM -0.4 °F -17.6 °F -11.2 °F 60% 30.45 in 10.0 mi North 11.5 mph - N/A   Clear
12:34 PM -0.4 °F -19.9 °F -11.2 °F 60% 30.45 in 10.0 mi North 15.0 mph 20.7 mph N/A   Clear
12:52 PM -0.4 °F -18.4 °F -11.2 °F 60% 30.44 in 10.0 mi NW 12.7 mph - N/A   Clear
1:14 PM 1.4 °F -14.5 °F -11.2 °F 56% 30.44 in 10.0 mi NNW 10.4 mph 18.4 mph N/A   Clear
1:34 PM 1.4 °F -14.5 °F -11.2 °F 56% 30.44 in 10.0 mi NNW 10.4 mph - N/A   Clear
1:53 PM 1.4 °F -16.9 °F -11.2 °F 56% 30.43 in 10.0 mi NNW 13.8 mph - N/A   Clear
2:15 PM 1.4 °F -15.3 °F -11.2 °F 56% 30.43 in 10.0 mi North 11.5 mph - N/A   Clear
2:35 PM 1.4 °F -18.2 °F -11.2 °F 56% 30.42 in 10.0 mi NNW 16.1 mph - N/A   Clear
2:52 PM 1.4 °F -18.2 °F -11.2 °F 56% 30.43 in 10.0 mi North 16.1 mph 20.7 mph N/A   Clear
3:15 PM 1.4 °F -13.5 °F -11.2 °F 56% 30.45 in 10.0 mi NNW 9.2 mph 16.1 mph N/A   Clear
3:35 PM 1.4 °F -13.5 °F -11.2 °F 56% 30.45 in 10.0 mi NNW 9.2 mph - N/A   Clear
3:52 PM 1.4 °F -12.5 °F -11.2 °F 56% 30.46 in 10.0 mi NNW 8.1 mph - N/A   Scattered Clouds
4:15 PM 1.4 °F -14.5 °F -13.0 °F 51% 30.45 in 10.0 mi NNW 10.4 mph - N/A   Scattered Clouds
4:35 PM -0.4 °F -15.7 °F -13.0 °F 55% 30.45 in 10.0 mi North 9.2 mph - N/A   Clear
4:53 PM -0.4 °F -14.7 °F -13.0 °F 55% 30.44 in 10.0 mi NNW 8.1 mph - N/A   Clear
5:15 PM -2.2 °F -15.6 °F -13.0 °F 60% 30.45 in 10.0 mi NW 6.9 mph - N/A   Clear
5:34 PM -4.0 °F -17.8 °F -14.8 °F 60% 30.46 in 10.0 mi NW 6.9 mph - N/A   Clear
5:53 PM -4.0 °F -19.0 °F -14.8 °F 60% 30.46 in 10.0 mi NW 8.1 mph - N/A   Clear
6:15 PM -5.8 °F -19.9 °F -14.8 °F 65% 30.46 in 10.0 mi NW 6.9 mph - N/A   Clear
6:34 PM -5.8 °F -18.4 °F -14.8 °F 65% 30.47 in 10.0 mi NW 5.8 mph - N/A   Clear
6:53 PM -7.6 °F -20.6 °F -16.6 °F 65% 30.47 in 10.0 mi NW 5.8 mph - N/A   Clear
7:15 PM -7.6 °F -20.6 °F -16.6 °F 65% 30.47 in 10.0 mi NW 5.8 mph - N/A   Clear
7:35 PM -7.6 °F -23.4 °F -16.6 °F 65% 30.46 in 10.0 mi NW 8.1 mph - N/A   Clear
7:52 PM -7.6 °F -23.4 °F -16.6 °F 65% 30.47 in 10.0 mi NW 8.1 mph - N/A   Clear
8:14 PM -7.6 °F -23.4 °F -16.6 °F 65% 30.47 in 10.0 mi NW 8.1 mph - N/A   Clear
8:35 PM -9.4 °F -25.6 °F -16.6 °F 71% 30.47 in 10.0 mi NW 8.1 mph - N/A   Clear
8:53 PM -9.4 °F -25.6 °F -16.6 °F 71% 30.47 in 10.0 mi NW 8.1 mph - N/A   Clear
9:14 PM -9.4 °F -26.8 °F -16.6 °F 71% 30.47 in 10.0 mi NW 9.2 mph - N/A   Clear
9:35 PM -9.4 °F -26.8 °F -16.6 °F 71% 30.47 in 10.0 mi NW 9.2 mph - N/A   Clear
9:52 PM -9.4 °F -25.6 °F -16.6 °F 71% 30.48 in 10.0 mi NW 8.1 mph - N/A   Clear
10:15 PM -9.4 °F -24.3 °F -16.6 °F 71% 30.47 in 10.0 mi NW 6.9 mph - N/A   Clear
10:34 PM -9.4 °F -24.3 °F -16.6 °F 71% 30.47 in 10.0 mi NW 6.9 mph - N/A   Clear
10:53 PM -9.4 °F -22.7 °F -16.6 °F 71% 30.47 in 10.0 mi NW 5.8 mph - N/A   Clear
11:15 PM -9.4 °F -20.9 °F -16.6 °F 71% 30.48 in 10.0 mi WNW 4.6 mph - N/A   Clear
11:34 PM -9.4 °F -22.7 °F -16.6 °F 71% 30.49 in 10.0 mi WNW 5.8 mph - N/A   Clear
11:53 PM -9.4 °F -20.9 °F -16.6 °F 71% 30.50 in 10.0 mi West 4.6 mph - N/A   Clear